This is the latest recevied weather packets stored in our database for station/object KA7EII-13. If no packets are shown the sender has not sent any weather packets the latest 10 day(s).
| Time | Temp. | Humidity | Pressure | Rain* | Wind** | Luminosity | Snow |
|---|---|---|---|---|---|---|---|
| 1777764901 | 22.22° C | 22% | 1105.5 hPa | 0 mm | - | 355 W/m² | - |
| 1777764598 | 22.22° C | 23% | 1105.5 hPa | 0 mm | - | 358 W/m² | - |
| 1777764295 | 21.67° C | 24% | 1105.6 hPa | 0 mm | - | 276 W/m² | - |
| 1777763992 | 22.22° C | 26% | 1105.6 hPa | 0 mm | - | 251 W/m² | - |
| 1777763689 | 21.67° C | 24% | 1105.6 hPa | 0 mm | - | 237 W/m² | - |
| 1777763387 | 21.67° C | 25% | 1105.6 hPa | 0 mm | - | 198 W/m² | - |
| 1777763085 | 21.67° C | 24% | 1105.6 hPa | 0 mm | - | 177 W/m² | - |
| 1777762783 | 22.22° C | 24% | 1105.9 hPa | 0 mm | - | 238 W/m² | - |
| 1777762478 | 23.33° C | 23% | 1106 hPa | 0 mm | - | 208 W/m² | - |
| 1777762176 | 23.33° C | 24% | 1105.9 hPa | 0 mm | - | 428 W/m² | - |
| 1777761872 | 22.78° C | 24% | 1105.9 hPa | 0 mm | - | 396 W/m² | - |
| 1777761568 | 22.22° C | 24% | 1106 hPa | 0 mm | - | 438 W/m² | - |
| 1777761266 | 22.78° C | 24% | 1106 hPa | 0 mm | - | 429 W/m² | - |
| 1777760965 | 23.33° C | 23% | 1106.1 hPa | 0 mm | - | 432 W/m² | - |
| 1777760662 | 22.78° C | 26% | 1106 hPa | 0 mm | - | 502 W/m² | - |
| 1777760362 | 23.33° C | 23% | 1106.1 hPa | 0 mm | - | 521 W/m² | - |
| 1777760059 | 22.78° C | 26% | 1106.3 hPa | 0 mm | - | 501 W/m² | - |
| 1777759756 | 22.78° C | 24% | 1106.3 hPa | 0 mm | - | 522 W/m² | - |
| 1777759451 | 22.78° C | 22% | 1106.4 hPa | 0 mm | - | 321 W/m² | - |
| 1777759148 | 23.33° C | 24% | 1106.8 hPa | 0 mm | - | 576 W/m² | - |
| 1777758846 | 23.89° C | 24% | 1106.7 hPa | 0 mm | - | 614 W/m² | - |
| 1777758542 | 23.33° C | 23% | 1106.7 hPa | 0 mm | - | 614 W/m² | - |
| 1777758239 | 22.78° C | 22% | 1106.9 hPa | 0 mm | - | 629 W/m² | - |
| 1777757936 | 22.78° C | 25% | 1106.9 hPa | 0 mm | - | 629 W/m² | - |
| 1777757633 | 22.78° C | 25% | 1106.8 hPa | 0 mm | - | 544 W/m² | - |
* Rain latest hour (hover to see other rain measurements)
** Current wind speed in m/s (hover to see current wind gust speed)